Location: Marcé
(47.5801°N, 0.3280°W)
Time: 05:42:03
(UTC+01:00)

Altair - Pass Details

Date: 13 December 2021
Orbit: 1501 x 1683 km, 47.2° (Epoch: 21 January)

Event Time Altitude Azimuth Distance (km) Brightness Sun altitude
Rises 14:33:52 0° 236° (SW) 4,848 11.1 15.9°
Reaches altitude 10° 14:37:04 10° 234° (SW) 3,840 10.8 15.6°
Maximum altitude 14:46:40 66° 155° (SSE) 1,695 8.3 15.0°
Drops below altitude 10° 14:55:55 10° 76° (ENE) 3,709 9.2 14.2°
Sets 14:58:56 0° 74° (ENE) 4,675 9.6 14.0°
